Location: Unspecified
(0.0000°N, 0.0000°E)
Time: 13:12:46
(UTC+00:00)

LightSail 2 - Pass Details

Date: 26 March 2020
Orbit: 693 x 726 km, 24.0° (Epoch: 02 April)

Event Time Altitude Azimuth Distance (km) Brightness Sun altitude
Rises 19:07:35 0° 274° (W) 3,106 10.4 -15.5°
Reaches altitude 10° 19:10:20 10° 263° (W) 2,182 9.0 -16.2°
Maximum altitude 19:14:44 28° 204° (SSW) 1,309 6.7 -17.3°
Enters shadow 19:18:20 14° 151° (SSE) 1,934 7.1 -18.2°
